Miscellaneous Local Product
Issued by NWS Hastings, NE

Home | Current Version | Previous Version | Graphics & Text | Print | Product List | Glossary On
Versions: 1 2 3 4 5 6 7 8 9 10 11 12 13 14 15 16 17 18 19 20 21 22 23 24 25 26 27 28 29 30 31 32 33 34 35 36 37 38 39 40 41 42 43 44 45 46 47 48 49 50
000
AXUS43 KGID 180502
MISGRI

GID CWA HOURLY WEATHER ROUNDUP
NATIONAL WEATHER SERVICE HASTINGS NE
1100 PM CST TUE JAN 17 2017

NOTE: "FAIR" INDICATES FEW OR NO CLOUDS BELOW 12,000 FEET WITH NO
SIGNIFICANT WEATHER AND/OR OBSTRUCTIONS TO VISIBILITY.

...SOUTH CENTRAL NEBRASKA...

CITY           SKY/WX    TMP DP  RH WIND       PRES   REMARKS
GRAND ISLAND   CLEAR     33  30  88 SW12      30.05R WCI  24
HASTINGS       CLEAR     34  29  82 S9        30.07R WCI  27
KEARNEY        CLOUDY    32  27  80 SW10      30.05S WCI  24
ORD            CLEAR     29  24  82 S6        30.00R WCI  23
YORK           CLEAR     32  32 100 SW9       30.06S WCI  24
AURORA         CLEAR     32  31  96 SW8       30.05S WCI  25
LEXINGTON      CLEAR     36  28  72 SW12      30.04S WCI  27
HOLDREGE       CLOUDY    33  28  81 SW8       30.06S WCI  26
HEBRON         CLEAR     33  30  89 SW9       30.11R WCI  25

...NEBRASKA PANHANDLE...

CITY           SKY/WX    TMP DP  RH WIND       PRES   REMARKS
CHADRON        CLOUDY    17  13  84 W9        29.93F WCI   6
ALLIANCE       CLOUDY    17  13  84 W9        29.94F WCI   6
SCOTTSBLUFF    CLOUDY    29  15  56 NW10      29.97F WCI  20
SIDNEY         CLOUDY    31  24  75 W14       29.98F WCI  21

...WESTERN AND NORTH CENTRAL NEBRASKA...

CITY           SKY/WX    TMP DP  RH WIND       PRES   REMARKS
VALENTINE      CLOUDY    24  17  74 W7        29.91F WCI  16
AINSWORTH      CLOUDY    32  28  84 SW10      29.92S WCI  24
ONEILL         CLOUDY    31  27  84 SW7       29.96S WCI  25
BROKEN BOW     CLEAR     25  22  88 S3        30.00R
IMPERIAL       CLOUDY    31  28  89 SW12      30.04R WCI  22
NORTH PLATTE   CLEAR     25  23  92 CALM      30.02R
MCCOOK         CLEAR     31  27  85 SW8       30.06R WCI  23

...EASTERN NEBRASKA...

CITY           SKY/WX    TMP DP  RH WIND       PRES   REMARKS
NORFOLK        CLOUDY    32  29  88 SW12      30.00S WCI  23
SO SIOUX CITY  CLOUDY    25  23  92 SE8       30.04R FOG     WCI  16
TEKAMAH        CLOUDY    30  27  88 S9        30.06S FOG     WCI  22
COLUMBUS       CLOUDY    30  28  93 SW5       30.05S WCI  25
ALBION         CLOUDY    31  28  91 S3        30.01S
OMAHA EPPLEY   CLOUDY    28  23  81 SE8       30.09R FOG     WCI  20
OFFUTT AFB     CLEAR     25  25 100 SE5       30.09R FOG     WCI  19
MILLARD        CLOUDY    28  27  95 CALM      30.09S FOG
LINCOLN        CLOUDY    26  25  96 S7        30.11R FOG     WCI  18
NEBRASKA CITY  CLOUDY    30  30 100 S10       30.12R WCI  21
BEATRICE       CLEAR     30  29  96 S7        30.12R WCI  24
FALLS CITY     CLEAR     29  27  92 S5        30.14R WCI  24

...NORTHERN KANSAS...

CITY           SKY/WX    TMP DP  RH WIND       PRES   REMARKS
GOODLAND       CLEAR     35  30  82 SW14      30.05S WCI  26
HILL CITY      CLEAR     33  27  78 SW8       30.11R WCI  26
NORTON         CLEAR     32  25  74 SW8       30.07S WCI  25
PHILLIPSBURG   CLEAR     34  27  75 SW3       30.10S
SMITH CENTER   PTCLDY    30  27  86 S7        30.11S WCI  23
HAYS           CLEAR     30  26  85 W3        30.12F
RUSSELL        CLEAR     31  28  89 S7        30.11S WCI  24
CONCORDIA      CLOUDY    33  28  81 SW9       30.12S WCI  25
SALINA         CLEAR     34  28  79 S5        30.16R WCI  30
TOPEKA         CLOUDY    29  25  85 CALM      30.16R



USA.gov is the U.S. government's official web portal to all federal, state and local government web resources and services.